Flag for U.S.A. Weather past 2 weeks in Frankfort, Kentucky, U.S.A.

Now
61 °F

Light rain. Mostly cloudy.


Feels Like: 61 °F
Forecast: 52 / 68 °F
Wind: 3 mph from Southwest

Location: Capital City Airport


UV Index: 5 (Moderate)

Visibility: 9 mi


Pressure: 29.71 "Hg

Humidity: 52%

Dew point: 43 °F

Location of FrankfortLocation

Historic Weather in Frankfort

°F

Frankfort temperature yesterday

Maximum temperature yesterday: 70 °F (at 3:53 PM)
Minimum temperature yesterday: 45 °F (at 12:53 AM)
Average temperature yesterday: 57 °F

Past Weeks' High & Low Weather Summary

 TemperatureHumidityPressure
High81 °F (Apr 13, 2:53 PM)100% (Apr 15, 4:53 AM)30.40 "Hg (Apr 15, 4:53 AM)
Low24 °F (Apr 16, 5:53 AM)22% (Apr 13, 4:53 PM)29.66 "Hg (Apr 14, 6:53 PM)
Average57 °F56%30.05 "Hg
* Reported Apr 10 12:53 AM — Apr 25 12:53 AM, Frankfort, Weather by CustomWeather, © 2014

Note: Actual official high and low records may vary slightly from our data, if they occured in-between our weather recording intervals... More about our weather records

Advertising

Historic Weather Conditions — Data for Previous 24 hours

 ConditionsComfort  
Time TempWeatherWind HumidityBarometerVisibility
12:53 AM
Apr 25
59 °FPassing clouds.5 mph48%29.73 "Hg10 mi
11:53 PM
Apr 24
58 °FClear.7 mph50%29.75 "Hg10 mi
10:53 PM57 °FClear.6 mph51%29.75 "Hg10 mi
9:53 PM61 °FClear.8 mph48%29.78 "Hg10 mi
8:53 PM60 °FSunny.7 mph52%29.79 "Hg10 mi
7:53 PM65 °FSunny.9 mph45%29.80 "Hg10 mi
6:53 PM67 °FSunny.8 mph44%29.83 "Hg10 mi
5:53 PM69 °FSunny.8 mph33%29.85 "Hg10 mi
4:53 PM70 °FSunny.5 mph34%29.87 "Hg10 mi
3:53 PM70 °FSunny.10 mph34%29.90 "Hg10 mi
2:53 PM68 °FSunny.9 mph38%29.94 "Hg10 mi
1:53 PM65 °FSunny.10 mph40%29.96 "Hg10 mi
12:53 PM61 °FPassing clouds.13 mph46%30.00 "Hg10 mi
11:53 AM56 °FPartly sunny.10 mph53%30.05 "Hg10 mi
10:53 AM56 °FSunny.14 mph53%30.06 "Hg10 mi
9:53 AM53 °FSunny.13 mph56%30.06 "Hg10 mi
8:53 AM50 °FSunny.13 mph59%30.06 "Hg10 mi
7:53 AM47 °FSunny.9 mph64%30.05 "Hg10 mi
6:53 AM46 °FPassing clouds.9 mph66%30.04 "Hg10 mi
5:53 AM47 °FClear.9 mph64%30.03 "Hg10 mi
4:53 AM49 °FClear.8 mph59%30.03 "Hg10 mi
3:53 AM49 °FPassing clouds.9 mph59%30.02 "Hg10 mi
2:53 AM48 °FPassing clouds.7 mph63%30.03 "Hg10 mi
Weather by CustomWeather, © 2014

See weather overview